Location: Hamburg
(53.5500°N, 10.0000°E)
Time: 14:20:17
(UTC+02:00)

Vanguard 1 Rocket - Visible Passes

Search period start: 28 July 2014 00:00
Search period end: 07 August 2014 00:00
Orbit: 651 x 4229 km, 34.3° (Epoch: 23 July)

Date Brightness Start Highest point End Pass type
(mag) Time Alt. Az. Time Alt. Az. Time Alt. Az.
28 Jul 9.7 01:43:22 10° SW 01:56:45 28° S 02:04:57 10° SE visible
28 Jul 9.5 04:13:03 10° WSW 04:21:32 22° SSW 04:27:11 10° SSE visible
28 Jul 10.8 22:07:34 10° S 22:18:41 16° SSE 22:27:25 10° ESE visible
29 Jul 10.0 00:30:22 10° SW 00:45:26 28° S 00:54:57 10° ESE visible
29 Jul 9.5 02:59:21 10° WSW 03:11:07 28° SSW 03:18:20 10° SE visible
29 Jul 10.4 23:18:05 10° SSW 23:33:45 26° SSE 23:44:20 10° ESE visible
30 Jul 9.7 01:45:39 10° SW 02:00:13 31° S 02:08:57 10° SE visible
30 Jul 9.6 04:16:15 10° WSW 04:24:54 21° SSW 04:30:42 10° SSE visible
30 Jul 10.7 22:07:04 10° S 22:21:50 21° SSE 22:32:48 10° ESE visible
31 Jul 10.0 00:32:12 10° SW 00:48:49 32° S 00:59:04 10° ESE visible
31 Jul 9.6 03:02:10 10° WSW 03:14:31 28° SSW 03:22:04 10° SE visible
31 Jul 10.3 23:19:21 10° SSW 23:37:01 30° SSE 23:48:38 10° ESE visible
01 Aug 9.8 01:48:07 10° WSW 02:03:37 33° S 02:12:48 10° SE visible
01 Aug 9.7 04:19:36 10° WSW 04:28:08 20° SW 04:34:00 10° S visible
01 Aug 10.7 22:07:32 10° SSW 22:24:56 26° SSE 22:37:28 10° ESE visible
02 Aug 10.0 00:34:17 10° SW 00:52:09 35° S 01:03:02 10° ESE visible
02 Aug 9.7 03:05:05 10° WSW 03:17:49 28° SSW 03:25:40 10° SSE visible
02 Aug 10.3 23:21:00 10° SW 23:40:14 34° SSE 23:52:43 10° ESE visible
03 Aug 9.8 01:50:44 10° WSW 02:06:56 34° SSW 02:16:33 10° SE visible
03 Aug 9.8 04:23:07 10° WSW 04:31:15 18° SW 04:37:02 10° S visible
03 Aug 10.6 22:08:38 10° SSW 22:27:59 31° SSE 22:41:45 10° ESE visible
04 Aug 10.0 00:36:36 10° WSW 00:55:26 37° S 01:06:51 10° ESE visible
04 Aug 9.8 03:08:06 10° WSW 03:21:01 27° SSW 03:29:06 10° SSE visible
04 Aug 10.3 23:22:58 10° SW 23:43:24 37° S 23:56:37 10° ESE visible
05 Aug 9.9 01:53:27 10° WSW 02:10:09 34° SSW 02:20:10 10° SE visible
05 Aug 10.0 04:26:55 10° WSW 04:34:14 16° SW 04:39:41 10° SSW visible
05 Aug 10.6 22:10:11 10° SW 22:31:00 35° SSE 22:45:47 10° ESE visible
06 Aug 10.1 00:39:04 10° WSW 00:58:38 38° S 01:10:34 10° SE visible
06 Aug 9.9 03:11:15 10° W 03:24:04 25° SW 03:32:20 10° SSE visible
06 Aug 10.3 23:25:11 10° SW 23:46:31 40° S 00:00:00 11° ESE visible
